Tracking 27112 objects as of 26-Mar-2023
HD Live streaming from Space Station
objects crossing your sky now

STARLINK-4063

Track STARLINK-4063 now!
10-day predictions
STARLINK-4063 is classified as:


NORAD ID: 53132
Int'l Code: 2022-083A
Perigee: 546.2 km
Apogee: 547.9 km
Inclination: 53.2 °
Period: 95.4 minutes
Semi major axis: 6918 km
RCS: Unknown
Launch date: July 17, 2022
Source: United States (US)
Launch site: AIR FORCE EASTERN TEST RANGE (AFETR)
Your satellite tracking list
Your tracking list is empty




NASA's NSSDC Master Catalog

Two Line Element Set (TLE):
1 53132U 22083A   23085.02037868  .00011612  00000-0  74744-3 0  9991
2 53132  53.2156 340.9454 0001254 124.7310 235.3801 15.08792912 38857
Source of the keplerian elements: AFSPC